Miscellaneous Local Product
Issued by NWS North Platte, NE

Home | Current Version | Previous Version | Text Only | Print | Product List | Glossary On
Versions: 1 2 3 4 5 6 7 8 9 10 11 12 13 14 15 16 17 18 19 20 21 22 23 24 25 26 27 28 29 30 31 32 33 34 35 36 37 38 39 40 41 42 43 44 45 46 47 48 49 50
000
AXUS43 KLBF 262010
MISLBF


WESTERN AND NORTH CENTRAL NEBRASKA HOURLY WEATHER ROUNDUP
NATIONAL WEATHER SERVICE NORTH PLATTE NE
200 PM CST MON JAN 26 2015

***STATIONS NOT REPORTING VARIABLES SUCH AS SKY/WEATHER OR
PRESSURE ARE PROVIDED BY THE NEBRASKA DEPARTMENT OF
ROADS...RAWS...AND APRS NETWORKS...AND ARE NOT UNDER
NATIONAL WEATHER SERVICE QUALITY CONTROL***

...OBSERVATIONS IN AND NEAR THE EASTERN PANHANDLE OF NEBRASKA...

CITY           SKY/WX    TMP DP  RH WIND       PRES   REMARKS
PINE RIDGE     SUNNY     62  33  33 W10       30.07F
CHADRON        SUNNY     62  34  35 W20G26    30.08F
ALLIANCE       SUNNY     60  36  40 NW13      30.11F
SIDNEY         SUNNY     66  30  26 NW20      30.16F
WHITECLAY        N/A     60  34  38 W12         N/A
LISCO            N/A     65  25  21 W16         N/A
BIG SPRINGS      N/A     64  34  33 NW8         N/A
LEWELLEN         N/A     64  30  27 W13         N/A
$$

...OBSERVATIONS IN NORTH CENTRAL NEBRASKA...

CITY           SKY/WX    TMP DP  RH WIND       PRES   REMARKS
VALENTINE      SUNNY     62  32  32 NW17G24   30.01F
THEDFORD       SUNNY     65  32  29 NW24G31   30.04F
AINSWORTH      SUNNY     59  33  36 NW21      30.01F
O`NEILL        SUNNY     58  33  38 NW16      30.00R
ORD            SUNNY     61  33  35 NW16G24   29.98F
BROKEN BOW     SUNNY     65  34  31 NW28G33   30.00F
BROWNLEE         N/A     64  30  27 NW22        N/A
SPRINGVIEW       N/A     59  35  41 NW12        N/A
BREWSTER         N/A     65  33  29 N23         N/A
ROSE             N/A     64  40  40 SW15        N/A
NEWPORT          N/A     59  32  35 NW17        N/A
SARGENT          N/A     62  35  37 NW7G15      N/A
COMSTOCK         N/A     68  36  30 NW15        N/A
CHAMBERS         N/A     59  33  37 N8G15       N/A
EWING            N/A     56  37  49 NW10G17     N/A
$$

...OBSERVATIONS IN SOUTHWEST NEBRASKA AND FAR NORTHEAST COLORADO...

CITY           SKY/WX    TMP DP  RH WIND       PRES   REMARKS
WRAY           FAIR      67  30  25 NW10G18   30.15F
HOLYOKE        FAIR      70  28  21 N21       30.13F
IMPERIAL       SUNNY     67  29  24 NW18      30.10F
OGALLALA       SUNNY     65  33  31 W12       30.10F
NORTH PLATTE   SUNNY     67  30  25 NW21G29   30.05F
MCCOOK         SUNNY     71  29  21 NW20G26   30.05F
LEXINGTON      SUNNY     67  31  26 NW25      30.02F
PAXTON           N/A     64  37  37 W8          N/A
BRADY            N/A     67  34  29 S5G12       N/A
GOTHENBURG       N/A     67  29  24 NW12        N/A
CALLAWAY         N/A     64  37  36 NW20        N/A
$$

...NORTH PLATTE AREA...

CITY           SKY/WX    TMP DP  RH WIND       PRES   REMARKS
AIRPORT        SUNNY     67  30  25 NW21G29   30.05F
$$

...SOME WEATHER OBSERVATIONS FROM AROUND THE REGION...

CITY           SKY/WX    TMP DP  RH WIND       PRES   REMARKS
DENVER         SUNNY     70  18  13 NW9       30.23F
LARAMIE        SUNNY     59  23  25 N6        30.30F
CHEYENNE       SUNNY     65  20  17 W16G22    30.23F
SCOTTSBLUFF    SUNNY     62  37  39 W13       30.13F
RAPID CITY     SUNNY     68  29  23 NW20      30.03F
PIERRE         SUNNY     55  31  39 W14       29.98F
WINNER         FAIR      59  31  34 N17       30.00F
SIOUX FALLS    MOSUNNY   48  38  68 NW17G25   29.90R
OMAHA          MOSUNNY   57  37  47 NW17      29.91F
GRAND ISLAND   SUNNY     61  33  35 NW16      29.99F
KANSAS CITY    FAIR      57  38  48 W16       29.90S
WICHITA        SUNNY     72  35  25 NW16      29.98F
HAYS           SUNNY     70  32  24 N23G30    30.05F
LIBERAL        SUNNY     70  34  26 N15       30.16F
GOODLAND       SUNNY     67  30  25 N15       30.14F
$$



USA.gov is the U.S. government's official web portal to all federal, state and local government web resources and services.